Vertical_Velocity
0 -3 -1 -1 -0 -2 -2 -1 -6 -5 -4 0 -0 -1 -1 -2 -3 -3 -3 -2 -1 -0 -0 -1 0 -0 -1 0 1 1 1 2 1 -0 1 3 2 0 2 1 0 -2 1
5 0 1 1 0 1 1 -2 -1 0 -1 -1 0 0 -1 2 1 0 -0 1 0 -1 -0 1 1 0 -1 -1 -2 -2 -3 -3 -3 -3 -1 -1 -8 -4 4 -2 -1 -2 -1
3 4 1 3 2 3 6 6 4 5 3 1 -2 -1 -3 -2 -3 2 3 3 2 -1 -2 -5 -6 -3 -1 -1 -1 -1 -1 -4 -4 -3 -6 -6 -3 -3 -6 -1 -2 -3 -1
-1 1 1 3 1 2 4 3 3 4 3 -0 4 4 5 3 1 -6 -5 -1 -1 -1 1 2 2 -0 0 1 -0 -1 0 3 2 0 2 -1 -2 -1 1 -4 -2 0 -0
0 1 4 7 8 5 2 2 2 2 3 4 3 2 0 1 2 5 5 1 0 3 0 -2 1 0 -1 0 -0 -1 -2 0 2 -1 -5 -1 -0 -0 -2 2 -6 0 3
1 1 1 -2 -3 -1 0 2 3 3 1 3 -0 -2 -0 -3 -2 -4 -3 1 2 3 2 1 -2 -3 -4 -4 -1 -3 -3 -2 -3 -1 1 0 -1 0 -1 -1 2 5 -14
2 2 -0 0 2 3 3 0 -0 3 4 5 3 3 3 0 2 1 -1 -1 2 -1 -2 -1 -2 2 0 -3 -1 -1 -4 -2 1 1 0 -1 -1 0 1 -1 3 -0 -5
3 0 -1 0 0 -0 -1 -1 2 4 4 2 4 5 7 4 1 0 7 5 0 2 2 1 2 -2 -3 -1 -2 -2 -1 -3 -2 -3 -3 1 2 1 2 2 1 -3 2
-2 -0 2 2 1 2 1 0 1 2 1 4 3 0 -1 0 3 2 -1 1 2 0 -2 -1 -4 -3 -3 -3 -1 -2 -2 2 2 3 3 -0 0 -1 1 -1 2 2 1
-0 -0 -3 1 1 7 8 7 4 5 3 4 1 1 5 2 2 1 3 4 3 3 3 0 -1 -0 3 2 -2 -4 -2 1 -2 -2 2 1 -1 -2 -2 3 0 4 1
7 3 6 3 -2 -1 1 2 4 3 3 4 4 1 -1 1 1 3 5 4 2 5 3 -1 -1 0 -2 1 -8 -2 -3 3 1 -3 -2 2 1 0 4 1 1 2 3
1 1 1 -1 4 3 -0 -2 -1 -3 -0 -0 1 -0 2 2 3 1 3 2 2 4 6 4 1 0 -3 -6 -1 -3 -0 -1 -2 -1 -3 1 -5 -1 -3 0 4 0 3
0 -2 0 1 0 -3 0 -1 -2 -2 2 1 8 5 1 2 7 2 -2 2 5 4 1 4 4 -4 -5 -6 0 -3 -5 -2 -2 -2 -2 1 -2 2 1 -1 -1 2 0
-3 -3 -2 3 0 2 0 -4 -6 0 3 4 1 1 5 4 3 3 1 5 2 -0 6 1 -9 -4 -0 -4 -2 -4 -1 0 -0 -2 0 1 -5 -1 -0 -1 -0 -0 -1
-10 -15 -16 -16 -12 -9 -3 -4 -2 1 -1 -0 -0 2 5 5 5 4 4 -4 -2 2 2 3 0 1 -3 -5 -7 1 1 1 -1 -3 2 3 -3 1 0 -0 3 2 1
-6 -6 -6 -5 -5 -7 -10 -4 0 1 -2 -1 -2 -0 6 7 7 1 -0 0 -0 1 -0 5 3 -4 -5 -1 0 1 -4 5 5 1 -6 3 -3 0 -4 1 -2 -1 2
-0 -2 -3 -4 -4 -4 -5 -3 -4 -4 -4 -7 -3 0 1 -0 -2 -1 -7 -2 4 -0 3 4 -1 -0 -4 -4 2 1 1 -1 0 2 -1 2 -2 1 -4 -2 -1 -1 3
-4 -2 0 -0 2 -1 1 0 2 -0 -2 -2 -1 6 6 3 10 18 13 26 21 15 9 -3 -11 -5 6 5 -3 -0 -3 -4 1 -5 -1 1 -1 -1 -1 -1 -1 1 1
-5 -3 -6 -6 -5 -4 -5 -8 -0 -0 3 1 4 8 9 16 20 1 23 5 -1 0 -14 -3 7 0 6 2 1 -3 2 2 -1 -1 -0 2 -2 -0 -2 -2 -1 1 2
-3 -8 -8 -5 -3 -4 -4 -3 -6 -8 -1 1 4 4 1 2 2 3 -3 -1 -5 -8 -2 6 -3 2 5 -1 3 1 -1 -3 2 -2 3 -2 1 0 -2 -2 0 1 1
-10 -6 -1 -4 -6 -4 -4 -1 1 -1 -7 -2 -3 4 4 -4 -1 -0 -3 -5 0 1 4 3 4 6 1 5 -1 -3 1 -1 2 -1 0 2 -2 -0 -2 1 1 1 1
-8 -3 -8 -5 -3 -2 -3 -2 2 2 2 -1 8 2 3 1 -1 3 -0 0 -2 1 0 6 2 2 3 2 3 1 -2 0 -0 -0 -1 2 -3 -0 -1 2 0 1 2
-3 -1 -4 -5 5 -2 -3 -8 1 -7 -1 9 24 25 10 1 -2 -2 2 -3 1 4 4 -3 -1 -2 6 -1 1 -4 1 -0 -3 -1 0 -3 1 -1 2 1 1 1 -1
-4 -6 -7 -6 -12 -2 0 -3 -2 -3 -5 -12 3 14 38 5 3 1 -0 3 3 -1 1 -0 0 3 1 -0 1 0 1 1 -1 1 -3 -1 0 3 4 3 2 1 0
-2 -4 -6 -3 -3 -5 -2 -0 -5 -6 -2 -3 -5 9 13 14 13 -0 0 1 2 1 -3 2 1 2 -5 1 -6 -2 2 -3 -1 -3 -2 -1 -0 1 3 3 2 0 0
-4 -2 -1 -4 -0 -2 -1 1 -2 -4 -4 -2 1 1 14 9 2 7 2 5 2 -0 3 -1 2 -1 -3 -1 -1 -2 -1 -4 -3 -2 -2 -1 1 3 2 2 2 1 2
Height
3128 3128 3128 3128 3128 3128 3128 3128 3128 3130 3130 3131 3132 3132 3133 3134 3134 3135 3135 3135 3135 3134 3134 3134 3133 3132 3131 3130 3128 3127 3127 3125 3123 3121 3120 3118 3117 3116 3115 3113 3111 3109 3108
3124 3124 3124 3123 3123 3123 3123 3123 3124 3125 3126 3127 3127 3127 3128 3128 3128 3129 3129 3130 3130 3130 3130 3130 3128 3128 3127 3125 3124 3123 3121 3120 3118 3116 3114 3111 3110 3110 3110 3107 3106 3104 3103
3120 3119 3118 3118 3118 3118 3118 3118 3119 3120 3120 3121 3121 3123 3123 3124 3125 3126 3126 3126 3125 3125 3125 3124 3123 3123 3122 3121 3119 3118 3116 3114 3112 3111 3109 3106 3105 3101 3099 3102 3100 3098 3097
3114 3115 3114 3113 3113 3113 3113 3113 3114 3115 3116 3116 3118 3118 3119 3119 3119 3119 3120 3120 3120 3120 3120 3119 3118 3117 3116 3115 3114 3112 3110 3109 3106 3104 3103 3101 3100 3098 3096 3090 3094 3093 3091
3108 3108 3108 3108 3108 3108 3109 3109 3109 3110 3111 3112 3113 3114 3114 3114 3114 3114 3114 3114 3115 3114 3114 3113 3113 3112 3111 3109 3107 3106 3104 3102 3099 3096 3094 3095 3093 3092 3090 3089 3083 3085 3086
3103 3104 3104 3104 3105 3105 3105 3105 3105 3106 3107 3107 3108 3108 3109 3108 3109 3109 3109 3109 3108 3108 3108 3107 3106 3105 3104 3103 3101 3099 3097 3095 3092 3090 3088 3086 3085 3084 3083 3082 3082 3078 3076
3099 3099 3099 3100 3099 3100 3100 3100 3101 3101 3101 3102 3102 3102 3103 3102 3102 3102 3102 3102 3102 3101 3101 3100 3099 3098 3097 3096 3094 3093 3091 3088 3084 3082 3080 3079 3078 3077 3076 3075 3075 3072 3070
3095 3094 3095 3095 3095 3095 3095 3095 3096 3096 3096 3096 3097 3097 3097 3096 3096 3096 3096 3095 3095 3094 3094 3093 3091 3090 3089 3087 3086 3085 3082 3079 3076 3074 3073 3072 3071 3070 3069 3068 3068 3066 3065
3089 3088 3089 3090 3090 3090 3090 3091 3090 3090 3091 3091 3090 3090 3090 3089 3089 3088 3088 3088 3087 3087 3086 3085 3084 3082 3080 3079 3078 3075 3073 3070 3068 3066 3064 3063 3062 3062 3062 3062 3061 3060 3059
3083 3083 3084 3085 3085 3086 3086 3087 3087 3086 3084 3084 3085 3084 3083 3082 3082 3081 3081 3081 3081 3080 3079 3077 3075 3073 3072 3071 3069 3068 3065 3062 3060 3060 3058 3056 3055 3054 3055 3054 3053 3053 3052
3081 3080 3080 3080 3080 3080 3080 3081 3081 3081 3081 3078 3078 3077 3075 3074 3074 3073 3072 3071 3071 3071 3069 3067 3065 3062 3062 3062 3062 3059 3057 3055 3052 3051 3050 3049 3047 3046 3046 3046 3046 3046 3046
3076 3077 3077 3076 3076 3076 3075 3074 3072 3072 3072 3071 3070 3068 3067 3065 3063 3063 3062 3063 3062 3061 3060 3056 3054 3054 3054 3054 3053 3051 3049 3047 3045 3043 3042 3040 3038 3037 3037 3038 3037 3038 3038
3071 3070 3069 3068 3066 3065 3064 3063 3062 3059 3058 3057 3057 3056 3056 3054 3053 3052 3052 3052 3051 3050 3047 3045 3045 3045 3046 3045 3045 3042 3041 3040 3037 3035 3033 3032 3031 3028 3027 3028 3028 3029 3029
3065 3063 3062 3060 3057 3055 3053 3052 3050 3048 3046 3044 3045 3045 3044 3043 3043 3042 3042 3040 3038 3037 3037 3035 3035 3037 3036 3036 3035 3035 3034 3032 3030 3028 3025 3023 3022 3020 3019 3019 3020 3020 3021
3056 3054 3052 3050 3048 3046 3044 3042 3040 3037 3034 3032 3033 3034 3034 3033 3033 3032 3031 3029 3028 3028 3027 3026 3027 3026 3025 3026 3027 3026 3025 3023 3023 3020 3019 3016 3014 3012 3011 3011 3011 3012 3013
3043 3042 3040 3039 3037 3036 3035 3034 3032 3029 3028 3026 3023 3024 3025 3024 3024 3022 3022 3020 3018 3016 3016 3016 3016 3015 3017 3018 3019 3018 3018 3017 3014 3013 3012 3009 3006 3004 3003 3003 3004 3005 3006
3038 3036 3034 3032 3030 3028 3026 3025 3023 3021 3020 3019 3018 3016 3015 3015 3015 3014 3011 3010 3008 3005 3005 3007 3007 3008 3010 3010 3010 3009 3010 3009 3008 3007 3004 3003 3001 2998 2996 2997 2998 3000 3001
3033 3032 3029 3026 3024 3022 3019 3017 3016 3014 3012 3011 3009 3009 3008 3007 3006 3003 3001 2997 2996 2996 2995 2997 2998 3002 3004 3003 3003 3003 3003 3002 3001 3001 2999 2997 2995 2994 2992 2992 2993 2994 2996
3025 3023 3021 3018 3017 3015 3012 3009 3007 3004 3003 3003 3002 3000 2999 2998 2994 2993 2991 2990 2989 2988 2988 2992 2993 2996 2997 2996 2997 2997 2997 2995 2995 2995 2994 2992 2991 2988 2988 2988 2989 2990 2991
3017 3013 3011 3009 3006 3004 3002 2999 2997 2995 2993 2993 2992 2989 2988 2986 2986 2985 2985 2983 2981 2983 2986 2988 2989 2990 2990 2990 2990 2989 2990 2989 2989 2990 2989 2988 2986 2985 2984 2984 2985 2987 2988
3009 3006 3001 2996 2993 2991 2988 2987 2985 2983 2982 2980 2981 2981 2977 2976 2976 2975 2975 2976 2976 2979 2982 2982 2982 2983 2984 2983 2983 2982 2984 2983 2984 2985 2985 2983 2982 2981 2981 2982 2983 2985 2986
3001 2997 2992 2989 2985 2982 2977 2975 2973 2970 2968 2969 2969 2968 2968 2967 2967 2968 2968 2969 2971 2974 2975 2977 2977 2977 2976 2976 2977 2976 2978 2978 2979 2980 2980 2979 2978 2977 2979 2980 2981 2983 2984
2991 2988 2984 2980 2978 2973 2968 2964 2963 2961 2959 2956 2953 2955 2956 2956 2958 2959 2961 2963 2966 2968 2969 2971 2971 2971 2970 2970 2971 2971 2973 2974 2975 2975 2975 2975 2975 2975 2976 2978 2980 2981 2982
2984 2980 2977 2973 2969 2965 2961 2958 2954 2951 2948 2947 2945 2943 2943 2945 2948 2952 2955 2957 2960 2961 2963 2964 2965 2965 2965 2966 2965 2967 2968 2969 2970 2971 2971 2971 2972 2973 2974 2975 2977 2979 2980
2976 2973 2970 2965 2961 2957 2953 2949 2946 2943 2939 2936 2935 2933 2934 2936 2941 2943 2947 2951 2953 2954 2956 2958 2959 2960 2961 2961 2962 2963 2964 2965 2966 2966 2967 2968 2969 2970 2971 2973 2975 2977 2978
2970 2966 2962 2958 2952 2948 2945 2941 2938 2935 2930 2926 2925 2926 2927 2930 2931 2936 2940 2945 2947 2949 2951 2952 2954 2955 2955 2956 2957 2958 2960 2961 2961 2963 2964 2965 2966 2968 2970 2971 2973 2975 2976